Phoenix-Mesa Gateway Airport, AZ

10:08 AM MST on September 24, 2017 (GMT -0700)
Phoenix-Mesa Gateway Airport

Weather History for KIWA - February, 2012

Change the Weather History Date:

Monday, February 6, 2012

  Actual Average Record
Temperature  
Mean Temperature 56 °F -  
Max Temperature 69 °F 64 °F 82 °F (2007)
Min Temperature 42 °F 41 °F 30 °F (2002)
Degree Days  
Heating Degree Days 10    
Growing Degree Days 6 (Base 50)    
Moisture  
Dew Point 30 °F    
Average Humidity 43    
Maximum Humidity 61    
Minimum Humidity 20    
Precipitation  
Precipitation 0.00 in - - ()
Sea Level Pressure  
Sea Level Pressure 30.03 in    
Wind  
Wind Speed 5 mph (ESE)    
Max Wind Speed 8 mph    
Max Gust Speed -    
Visibility 12 miles    
Events      
Averages and records for this station are not official NWS values.
T = Trace of Precipitation, MM = Missing Value Source: NWS Daily Summary

Daily Weather History Graph

Daily Weather History Graph

Search for Another Location

Airport or City:

Trip Planner

Search our weather history database for the weather conditions in past years. The results will help you decide how hot, cold, wet, or windy it might be!

Date:

Astronomy

Feb. 06, 2012 Rise Set
Actual Time 7:19 AM MST 6:02 PM MST
Civil Twilight 6:53 AM MST 6:28 PM MST
Nautical Twilight 6:23 AM MST 6:58 PM MST
Astronomical Twilight 5:54 AM MST 7:27 PM MST
Moon 5:10 PM MST (2/6) 6:11 AM MST (2/6)
Length of Visible Light 11h 35m
Length of Day
10h 43m
Waxing Gibbous, 98% of the Moon is Illuminated
Feb 6
Waxing Gibbous
Feb 7
Full
Feb 14
Last Quarter
Feb 21
New
Feb 29
First Quarter

Hourly Weather History & Observations

Time (MST) Temp. Windchill Dew Point Humidity Pressure Visibility Wind Dir Wind Speed Gust Speed Precip Events Conditions
12:15 AM 46.4 °F 43.5 °F 28.4 °F 50% 30.03 in 10.0 mi ESE 5.8 mph - N/A   Clear
12:35 AM 46.4 °F 43.5 °F 28.4 °F 50% 30.03 in 10.0 mi ESE 5.8 mph - N/A   Clear
12:55 AM 46.4 °F 42.9 °F 30.2 °F 53% 30.02 in 10.0 mi ESE 6.9 mph - N/A   Clear
1:15 AM 44.6 °F 40.7 °F 30.2 °F 57% 30.02 in 10.0 mi SE 6.9 mph - N/A   Clear
1:35 AM 44.6 °F 41.4 °F 30.2 °F 57% 30.02 in 10.0 mi ESE 5.8 mph - N/A   Clear
1:55 AM 44.6 °F 41.4 °F 30.2 °F 57% 30.02 in 10.0 mi SE 5.8 mph - N/A   Clear
2:15 AM 44.6 °F 41.4 °F 30.2 °F 57% 30.02 in 10.0 mi ESE 5.8 mph - N/A   Clear
2:35 AM 46.4 °F 43.5 °F 32.0 °F 57% 30.02 in 10.0 mi ESE 5.8 mph - N/A   Clear
2:55 AM 44.6 °F 40.7 °F 30.2 °F 57% 30.03 in 10.0 mi East 6.9 mph - N/A   Clear
3:15 AM 46.4 °F 42.9 °F 32.0 °F 57% 30.02 in 10.0 mi East 6.9 mph - N/A   Clear
3:35 AM 44.6 °F 40.7 °F 30.2 °F 57% 30.02 in 10.0 mi ESE 6.9 mph - N/A   Clear
3:55 AM 44.6 °F 40.7 °F 30.2 °F 57% 30.02 in 10.0 mi ESE 6.9 mph - N/A   Clear
4:15 AM 44.6 °F 41.4 °F 30.2 °F 57% 30.02 in 10.0 mi ESE 5.8 mph - N/A   Clear
4:35 AM 44.6 °F 40.2 °F 32.0 °F 61% 30.02 in 10.0 mi ESE 8.1 mph - N/A   Clear
4:55 AM 44.6 °F 40.7 °F 32.0 °F 61% 30.02 in 10.0 mi ESE 6.9 mph - N/A   Clear
5:15 AM 44.6 °F 41.4 °F 32.0 °F 61% 30.03 in 10.0 mi East 5.8 mph - N/A   Clear
5:47 AM 42.8 °F 41.1 °F 28.4 °F 57% 30.04 in 20.0 mi Variable 3.5 mph - N/A   Mostly Cloudy
6:47 AM 44.6 °F 41.4 °F 30.2 °F 57% 30.05 in 20.0 mi East 5.8 mph - N/A   Mostly Cloudy
7:47 AM 46.4 °F 44.3 °F 32.0 °F 57% 30.06 in 35.0 mi East 4.6 mph - N/A   Scattered Clouds
8:47 AM 48.2 °F - 32.0 °F 54% 30.07 in 35.0 mi East 4.6 mph - N/A   Scattered Clouds
9:47 AM 55.4 °F - 35.6 °F 47% 30.07 in 35.0 mi SE 5.8 mph - N/A   Scattered Clouds
10:47 AM 60.8 °F - 32.0 °F 34% 30.08 in 35.0 mi SE 3.5 mph - N/A   Scattered Clouds
11:47 AM 64.4 °F - 30.2 °F 28% 30.07 in 35.0 mi West 5.8 mph - N/A   Mostly Cloudy
12:47 PM 66.2 °F - 30.2 °F 26% 30.04 in 35.0 mi Variable 4.6 mph - N/A   Overcast
1:47 PM 66.2 °F - 28.4 °F 24% 30.02 in 35.0 mi Calm Calm - N/A   Overcast
2:47 PM 69.8 °F - 26.6 °F 20% 30.01 in 35.0 mi Calm Calm - N/A   Overcast
3:47 PM 68.0 °F - 24.8 °F 20% 30.00 in 35.0 mi West 5.8 mph - N/A   Mostly Cloudy
4:47 PM 68.0 °F - 24.8 °F 20% 30.00 in 35.0 mi West 4.6 mph - N/A   Mostly Cloudy
5:47 PM 66.2 °F - 26.6 °F 23% 30.00 in 35.0 mi West 5.8 mph - N/A   Mostly Cloudy
6:47 PM 64.4 °F - 26.6 °F 24% 30.01 in 20.0 mi Calm Calm - N/A   Overcast
7:47 PM 62.6 °F - 26.6 °F 26% 30.02 in 20.0 mi Calm Calm - N/A   Overcast
7:55 PM 60.8 °F - 28.4 °F 29% 30.03 in 10.0 mi Calm Calm - N/A   Clear
8:15 PM 60.8 °F - 32.0 °F 34% 30.03 in 10.0 mi Calm Calm - N/A   Clear
8:35 PM 59.0 °F - 30.2 °F 34% 30.04 in 10.0 mi Calm Calm - N/A   Clear
8:47 PM 59.0 °F - 28.4 °F 31% 30.04 in 20.0 mi Variable 3.5 mph - N/A   Overcast
8:55 PM 59.0 °F - 30.2 °F 34% 30.04 in 10.0 mi East 4.6 mph - N/A   Clear
9:15 PM 55.4 °F - 28.4 °F 36% 30.04 in 10.0 mi ESE 5.8 mph - N/A   Clear
9:35 PM 55.4 °F - 28.4 °F 36% 30.04 in 10.0 mi East 5.8 mph - N/A   Clear
9:55 PM 55.4 °F - 28.4 °F 36% 30.04 in 10.0 mi East 6.9 mph - N/A   Clear
10:15 PM 55.4 °F - 30.2 °F 38% 30.04 in 10.0 mi ENE 5.8 mph - N/A   Clear
10:35 PM 55.4 °F - 30.2 °F 38% 30.04 in 10.0 mi East 6.9 mph - N/A   Clear
10:55 PM 53.6 °F - 30.2 °F 41% 30.03 in 10.0 mi East 5.8 mph - N/A   Clear
11:15 PM 51.8 °F - 30.2 °F 44% 30.04 in 10.0 mi SE 3.5 mph - N/A   Clear
11:35 PM 50.0 °F - 30.2 °F 47% 30.04 in 10.0 mi ESE 5.8 mph - N/A   Clear
11:55 PM 50.0 °F - 30.2 °F 47% 30.04 in 10.0 mi SE 5.8 mph - N/A   Clear